Change the Weather History Date:

Monday, February 13, 2012

  Actual Average Record
Temperature  
Mean Temperature 34 °F -  
Max Temperature 43 °F 35 °F 60 °F (1951)
Min Temperature 25 °F 11 °F -16 °F (1967)
Degree Days  
Heating Degree Days 31    
Moisture  
Dew Point 15 °F    
Average Humidity 49    
Maximum Humidity 66    
Minimum Humidity 30    
Precipitation  
Precipitation 0.00 in - - ()
Sea Level Pressure  
Sea Level Pressure 29.98 in    
Wind  
Wind Speed 6 mph (SW)    
Max Wind Speed 15 mph    
Max Gust Speed 25 mph    
Visibility 10 miles    
Events Rain    
Averages and records for this station are not official NWS values.
T = Trace of Precipitation, MM = Missing Value Source: NWS Daily Summary

Daily Weather History Graph

Daily Weather History Graph

Search for Another Location

Airport or City:

Trip Planner

Search our weather history database for the weather conditions in past years. The results will help you decide how hot, cold, wet, or windy it might be!

Date:

Astronomy

Feb. 13, 2012 Rise Set
Actual Time 6:56 AM EST 5:29 PM EST
Civil Twilight 6:28 AM EST 5:57 PM EST
Nautical Twilight 5:55 AM EST 6:30 PM EST
Astronomical Twilight 5:23 AM EST 7:02 PM EST
Moon No Moon Rise 9:48 AM EST (2/13)
Length of Visible Light 11h 29m
Length of Day
10h 33m
Waning Gibbous, 62% of the Moon is Illuminated
Feb 13
Waning Gibbous
Feb 14
Last Quarter
Feb 21
New
Feb 29
First Quarter
Mar 8
Full

Hourly Weather History & Observations

Time (EST) Temp. Windchill Dew Point Humidity Pressure Visibility Wind Dir Wind Speed Gust Speed Precip Events Conditions
12:53 AM 26.1 °F 20.5 °F 12.9 °F 58% 29.94 in 10.0 mi SW 4.6 mph - N/A   Overcast
1:53 AM 26.1 °F 20.5 °F 12.9 °F 58% 29.94 in 10.0 mi SW 4.6 mph - N/A   Overcast
2:53 AM 27.0 °F 23.0 °F 12.0 °F 53% 29.95 in 10.0 mi WSW 3.5 mph - N/A   Overcast
3:53 AM 28.0 °F 21.7 °F 12.0 °F 51% 29.96 in 10.0 mi Variable 5.8 mph - N/A   Overcast
4:53 AM 28.0 °F 20.0 °F 14.0 °F 56% 29.98 in 10.0 mi SW 8.1 mph - N/A   Overcast
5:53 AM 27.0 °F 20.5 °F 14.0 °F 58% 29.98 in 10.0 mi SW 5.8 mph - N/A   Overcast
6:53 AM 25.0 °F 17.1 °F 15.1 °F 66% 29.99 in 10.0 mi SW 6.9 mph - N/A   Scattered Clouds
7:53 AM 26.1 °F 17.6 °F 15.1 °F 63% 30.01 in 10.0 mi SW 8.1 mph - N/A   Mostly Cloudy
8:53 AM 30.0 °F 20.0 °F 16.0 °F 56% 30.02 in 10.0 mi SW 12.7 mph 19.6 mph N/A   Clear
9:53 AM 34.0 °F 28.8 °F 16.0 °F 48% 30.01 in 10.0 mi WSW 5.8 mph - N/A   Clear
10:53 AM 36.0 °F 29.6 °F 15.1 °F 43% 30.00 in 10.0 mi WSW 8.1 mph 19.6 mph N/A   Clear
11:53 AM 39.0 °F 34.0 °F 14.0 °F 36% 29.98 in 10.0 mi Variable 6.9 mph 19.6 mph N/A   Clear
12:53 PM 41.0 °F 33.1 °F 14.0 °F 33% 29.96 in 10.0 mi WSW 15.0 mph 23.0 mph 0.00 in Rain Light Rain
1:53 PM 41.0 °F 33.1 °F 12.0 °F 31% 29.95 in 10.0 mi West 15.0 mph 25.3 mph 0.00 in   Clear
2:53 PM 43.0 °F 38.2 °F 12.9 °F 30% 29.94 in 10.0 mi West 8.1 mph 20.7 mph N/A   Clear
3:53 PM 41.0 °F 35.8 °F 16.0 °F 36% 29.94 in 10.0 mi SW 8.1 mph - N/A   Clear
4:53 PM 39.9 °F 35.8 °F 16.0 °F 38% 29.95 in 10.0 mi SW 5.8 mph - N/A   Clear
5:53 PM 37.0 °F - 16.0 °F 42% 29.98 in 10.0 mi Calm Calm - N/A   Clear
6:53 PM 33.1 °F 28.7 °F 16.0 °F 50% 30.00 in 10.0 mi SW 4.6 mph - N/A   Clear
7:53 PM 30.0 °F - 16.0 °F 56% 30.00 in 10.0 mi Calm Calm - N/A   Clear
8:53 PM 30.0 °F - 16.0 °F 56% 30.02 in 10.0 mi Calm Calm - N/A   Clear
9:53 PM 30.9 °F 26.2 °F 16.0 °F 54% 30.03 in 10.0 mi SSW 4.6 mph - N/A   Clear
10:53 PM 28.9 °F 25.2 °F 16.0 °F 58% 30.03 in 10.0 mi South 3.5 mph - N/A   Clear
11:53 PM 30.9 °F 27.5 °F 15.1 °F 52% 30.03 in 10.0 mi SW 3.5 mph - N/A   Clear